W4RJF Weather Reports


Display with metric or nautical units.
time (UTC)temp
F
wind
direction
speed
MPH
gust
MPH
rain 1hr
in
rain 24hr
in
rain mn
in
humidity
%
barometer
mb
20260510185007 85 185 0.0 3.0 0.00 0.00 0.00 40 1015.1
20260510184525 84 205 2.0 3.0 0.00 0.00 0.00 40 1015.2
20260510184012 85 188 2.0 3.0 0.00 0.00 0.00 40 1015.2
20260510183511 84 279 0.0 2.0 0.00 0.00 0.00 42 1015.2
20260510183028 82 15 0.0 2.0 0.00 0.00 0.00 48 1015.2
20260510182512 82 184 1.0 2.0 0.00 0.00 0.00 46 1015.2
20260510182016 81 149 0.0 2.0 0.00 0.00 0.00 45 1015.1
20260510181521 83 149 0.0 2.0 0.00 0.00 0.00 43 1015.1
20260510181011 82 96 0.0 2.0 0.00 0.00 0.00 45 1015.1
20260510180509 81 94 1.0 4.0 0.00 0.00 0.00 44 1015.2
20260510180022 80 338 2.0 4.0 0.00 0.00 0.00 42 1015.3
20260510175507 80 339 1.0 3.0 0.00 0.00 0.00 46 1015.3
20260510175011 81 317 0.0 2.0 0.00 0.00 0.00 44 1015.3
20260510174525 81 213 0.0 2.0 0.00 0.00 0.00 45 1015.4
20260510174012 81 236 0.0 2.0 0.00 0.00 0.00 45 1015.3
20260510173014 80 203 0.0 3.0 0.00 0.00 0.00 46 1015.3
20260510172007 79 302 0.0 2.0 0.00 0.00 0.00 50 1015.3
20260510171518 79 333 1.0 2.0 0.00 0.00 0.00 46 1015.4
20260510171007 79 313 0.0 2.0 0.00 0.00 0.00 48 1015.4
20260510170506 79 303 0.0 2.0 0.00 0.00 0.00 48 1015.5
20260510170024 78 290 0.0 2.0 0.00 0.00 0.00 47 1015.4
20260510165509 78 277 0.0 2.0 0.00 0.00 0.00 51 1015.4
20260510165008 78 190 0.0 2.0 0.00 0.00 0.00 52 1015.5
20260510164524 78 201 0.0 2.0 0.00 0.00 0.00 54 1015.4
20260510164013 77 212 0.0 2.0 0.00 0.00 0.00 53 1015.5
20260510163509 77 247 0.0 2.0 0.00 0.00 0.00 53 1015.6
20260510163026 77 273 0.0 2.0 0.00 0.00 0.00 54 1015.6
20260510162509 76 299 0.0 2.0 0.00 0.00 0.00 53 1015.7
20260510162008 76 252 0.0 2.0 0.00 0.00 0.00 59 1015.7
20260510161523 76 254 1.0 2.0 0.00 0.00 0.00 54 1015.7
20260510161011 77 82 0.0 2.0 0.00 0.00 0.00 54 1015.7
20260510160505 76 86 1.0 2.0 0.00 0.00 0.00 56 1015.7
20260510160033 76 322 0.0 2.0 0.00 0.00 0.00 55 1015.8
20260510155509 76 101 0.0 2.0 0.00 0.00 0.00 56 1015.9
20260510155011 76 82 1.0 2.0 0.00 0.00 0.00 57 1015.9
20260510154524 75 265 0.0 2.0 0.00 0.00 0.00 56 1016.0
20260510154012 76 90 0.0 2.0 0.00 0.00 0.00 57 1016.1
20260510153507 75 165 0.0 4.0 0.00 0.00 0.00 57 1016.1
20260510153029 75 317 1.0 4.0 0.00 0.00 0.00 59 1016.2
20260510152510 75 352 1.0 3.0 0.00 0.00 0.00 59 1016.1
20260510152010 75 15 0.0 2.0 0.00 0.00 0.00 59 1016.0
20260510151527 75 65 0.0 2.0 0.00 0.00 0.00 61 1015.9
20260510151007 75 105 0.0 2.0 0.00 0.00 0.00 62 1015.9
20260510150508 74 282 0.0 3.0 0.00 0.00 0.00 61 1015.9
20260510150023 74 98 0.0 2.0 0.00 0.00 0.00 65 1015.8
20260510145512 73 335 1.0 3.0 0.00 0.00 0.00 64 1015.9
20260510145009 73 306 0.0 3.0 0.00 0.00 0.00 63 1015.9
20260510144528 73 327 1.0 3.0 0.00 0.00 0.00 64 1015.9
20260510144009 73 306 0.0 3.0 0.00 0.00 0.00 64 1015.8
20260510143511 72 38 1.0 2.0 0.00 0.00 0.00 65 1015.8
20260510143025 72 121 0.0 2.0 0.00 0.00 0.00 68 1015.9
20260510142510 72 94 0.0 2.0 0.00 0.00 0.00 66 1015.8
20260510142015 71 352 0.0 2.0 0.00 0.00 0.00 69 1015.8
20260510141526 71 323 0.0 2.0 0.00 0.00 0.00 70 1015.8
20260510141009 70 317 0.0 3.0 0.00 0.00 0.00 72 1015.9
20260510140514 70 287 1.0 3.0 0.00 0.00 0.00 73 1015.9
20260510140016 70 275 0.0 2.0 0.00 0.00 0.00 75 1015.8
20260510135508 69 272 0.0 2.0 0.00 0.00 0.00 78 1016.0
20260510135007 69 293 0.0 2.0 0.00 0.00 0.00 80 1016.0
20260510134525 69 263 0.0 2.0 0.00 0.00 0.00 79 1015.9
20260510134010 69 279 0.0 2.0 0.00 0.00 0.00 81 1015.9
20260510133511 68 244 0.0 2.0 0.00 0.00 0.00 82 1015.9
20260510133022 68 348 0.0 2.0 0.00 0.00 0.00 83 1015.8
20260510132510 67 15 0.0 2.0 0.00 0.00 0.00 83 1015.8
20260510132012 67 227 0.0 2.0 0.00 0.00 0.00 84 1015.7
20260510131524 67 225 0.0 2.0 0.00 0.00 0.00 85 1015.7
20260510131015 66 319 0.0 2.0 0.00 0.00 0.00 86 1015.6
20260510130510 66 105 0.0 2.0 0.00 0.00 0.00 88 1015.6
20260510130027 66 282 0.0 2.0 0.00 0.00 0.00 88 1015.6
20260510125508 65 281 0.0 2.0 0.00 0.00 0.00 89 1015.5
20260510125009 65 295 0.0 2.0 0.00 0.00 0.00 89 1015.5
20260510124521 65 12 0.0 2.0 0.00 0.00 0.00 90 1015.5
20260510124006 65 154 0.0 2.0 0.00 0.00 0.00 90 1015.5
20260510123508 64 13 0.0 1.0 0.00 0.00 0.00 91 1015.4
20260510123025 64 207 0.0 0.0 0.00 0.00 0.00 91 1015.3
20260510122511 64 207 0.0 0.0 0.00 0.00 0.00 92 1015.3
20260510122011 63 207 0.0 0.0 0.00 0.00 0.00 93 1015.3
20260510121507 63 207 0.0 1.0 0.00 0.00 0.00 93 1015.2
20260510121003 63 207 0.0 1.0 0.00 0.00 0.00 94 1015.2
20260510120012 62 207 0.0 0.0 0.00 0.00 0.00 95 1015.2
20260510115010 61 207 0.0 0.0 0.00 0.00 0.00 95 1015.1
20260510114503 61 207 0.0 0.0 0.00 0.00 0.00 95 1015.1
20260510114003 60 207 0.0 0.0 0.00 0.00 0.00 95 1015.0
20260510113502 60 207 0.0 0.0 0.00 0.00 0.00 96 1014.9
20260510113003 60 207 0.0 0.0 0.00 0.00 0.00 96 1014.7
20260510112504 60 207 0.0 0.0 0.00 0.00 0.00 95 1014.6
20260510111505 60 207 0.0 0.0 0.00 0.00 0.00 95 1014.6
20260510110018 59 207 0.0 0.0 0.00 0.00 0.00 96 1014.4
20260510105004 59 207 0.0 1.0 0.00 0.00 0.00 95 1014.3
20260510104516 59 207 0.0 1.0 0.00 0.00 0.00 95 1014.2
20260510103502 59 27 0.0 0.0 0.00 0.00 0.00 95 1014.0
20260510103004 59 27 0.0 0.0 0.00 0.00 0.00 95 1013.9
20260510102503 59 27 0.0 0.0 0.00 0.00 0.00 95 1013.8
20260510102003 59 27 0.0 0.0 0.00 0.00 0.00 95 1013.8
20260510101511 59 95 0.0 0.0 0.00 0.00 0.00 95 1013.6
20260510101003 59 258 0.0 0.0 0.00 0.00 0.00 95 1013.6
20260510100505 59 258 0.0 0.0 0.00 0.00 0.00 95 1013.5
20260510100011 59 258 0.0 0.0 0.00 0.00 0.00 95 1013.5
20260510095504 60 258 0.0 0.0 0.00 0.00 0.00 95 1013.6
20260510095005 59 258 0.0 0.0 0.00 0.00 0.00 95 1013.5
20260510094008 60 258 0.0 0.0 0.00 0.00 0.00 95 1013.3
20260510093512 60 258 0.0 0.0 0.00 0.00 0.00 95 1013.3
20260510092005 59 258 0.0 0.0 0.00 0.00 0.00 95 1013.0
20260510091002 59 263 0.0 0.0 0.00 0.00 0.00 95 1012.9
20260510090503 60 263 0.0 0.0 0.00 0.00 0.00 95 1012.8
20260510090011 59 263 0.0 0.0 0.00 0.00 0.00 95 1012.8
20260510085504 60 263 0.0 0.0 0.00 0.00 0.00 95 1012.8
20260510085003 59 263 0.0 0.0 0.00 0.00 0.00 95 1012.7
20260510084520 60 263 0.0 0.0 0.00 0.00 0.00 95 1012.5
20260510084004 60 263 0.0 0.0 0.00 0.00 0.00 95 1012.5
20260510083504 60 263 0.0 0.0 0.00 0.00 0.00 95 1012.5
20260510082508 60 263 0.0 0.0 0.00 0.00 0.00 95 1012.7
20260510082010 60 263 0.0 0.0 0.00 0.00 0.00 95 1012.6
20260510081005 59 263 0.0 0.0 0.00 0.00 0.00 95 1012.6
20260510080504 59 263 0.0 0.0 0.00 0.00 0.00 95 1012.6
20260510080009 59 263 0.0 0.0 0.00 0.00 0.00 95 1012.6
20260510075503 59 263 0.0 0.0 0.00 0.00 0.00 95 1012.5
20260510075006 59 263 0.0 0.0 0.00 0.00 0.00 95 1012.5
20260510074513 59 263 0.0 0.0 0.00 0.00 0.00 95 1012.5
20260510074007 59 263 0.0 0.0 0.00 0.00 0.00 95 1012.4
20260510073505 59 263 0.0 0.0 0.00 0.00 0.00 95 1012.5
20260510073015 59 263 0.0 0.0 0.00 0.00 0.00 95 1012.5
20260510072505 59 263 0.0 0.0 0.00 0.00 0.00 95 1012.3
20260510072010 59 263 0.0 0.0 0.00 0.00 0.00 95 1012.3
20260510071526 59 263 0.0 0.0 0.00 0.00 0.00 95 1012.4
20260510071009 60 263 0.0 0.0 0.00 0.00 0.00 95 1012.3
20260510070508 60 263 0.0 0.0 0.00 0.00 0.00 95 1012.2
20260510070032 60 263 0.0 0.0 0.00 0.00 0.00 95 1012.3
20260510065504 60 263 0.0 0.0 0.00 0.00 0.00 95 1012.5
20260510065004 60 263 0.0 0.0 0.00 0.00 0.00 95 1012.5
20260510064510 60 263 0.0 0.0 0.00 0.00 0.00 95 1012.5
20260510064003 60 263 0.0 0.0 0.00 0.00 0.00 95 1012.5
20260510063503 60 263 0.0 0.0 0.00 0.00 0.00 95 1012.3
20260510063016 60 263 0.0 0.0 0.00 0.00 0.00 95 1012.3
20260510062506 60 263 0.0 0.0 0.00 0.00 0.00 95 1012.2
20260510062007 60 263 0.0 0.0 0.00 0.00 0.00 95 1012.2
20260510061529 60 263 0.0 0.0 0.00 0.00 0.00 95 1012.2
20260510061007 60 263 0.0 0.0 0.00 0.00 0.00 95 1012.2
20260510060509 60 263 0.0 0.0 0.00 0.00 0.00 95 1012.3
20260510060023 60 263 0.0 0.0 0.00 0.00 0.00 95 1012.3
20260510055510 60 263 0.0 0.0 0.00 0.00 0.00 95 1012.3
20260510055008 60 263 0.0 0.0 0.00 0.00 0.00 95 1012.5
20260510054526 60 263 0.0 0.0 0.00 0.00 0.00 95 1012.5
20260510054013 60 263 0.0 0.0 0.00 0.00 0.00 95 1012.7
20260510053503 60 263 0.0 0.0 0.00 0.00 0.00 95 1012.5
20260510053013 60 263 0.0 0.0 0.00 0.00 0.00 95 1012.7
20260510052506 60 263 0.0 0.0 0.00 0.00 0.00 95 1012.8
20260510052006 60 263 0.0 0.0 0.00 0.00 0.00 95 1012.8
20260510051522 60 263 0.0 0.0 0.00 0.00 0.00 95 1013.0
20260510051040 60 263 0.0 0.0 0.00 0.00 0.00 95 1012.9
20260510050508 60 263 0.0 0.0 0.00 0.00 0.00 94 1012.8
20260510045508 60 263 0.0 0.0 0.00 0.00 0.00 94 1013.0
20260510045009 60 263 0.0 0.0 0.00 0.00 0.00 94 1013.0
20260510044524 60 263 0.0 0.0 0.00 0.00 0.00 94 1013.0
20260510044008 61 263 0.0 0.0 0.00 0.00 0.00 94 1013.0
20260510043511 61 263 0.0 0.0 0.00 0.00 0.00 94 1013.0
20260510042508 61 263 0.0 0.0 0.00 0.00 0.00 94 1012.9
20260510042005 61 263 0.0 0.0 0.00 0.00 0.00 94 1012.8
20260510041523 61 263 0.0 0.0 0.00 0.00 0.00 94 1012.9
20260510041006 61 263 0.0 0.0 0.00 0.00 0.00 94 1012.8
20260510040508 61 263 0.0 0.0 0.00 0.00 0.00 94 1012.8
20260510040026 61 263 0.0 0.0 0.00 0.00 0.00 94 1012.8
20260510035507 61 263 0.0 0.0 0.00 0.00 0.00 94 1012.8
20260510035010 61 263 0.0 0.0 0.00 0.00 0.00 94 1012.7
20260510034523 61 263 0.0 0.0 0.00 0.00 0.00 94 1012.7
20260510034009 61 263 0.0 0.0 0.00 0.00 0.00 94 1012.7
20260510033509 61 263 0.0 0.0 0.00 0.00 0.00 94 1012.7
20260510033024 61 263 0.0 0.0 0.00 0.00 0.00 94 1012.7
20260510032510 61 263 0.0 0.0 0.00 0.00 0.00 94 1012.7
20260510032012 61 263 0.0 0.0 0.00 0.00 0.00 94 1012.7
20260510031519 61 263 0.0 0.0 0.00 0.00 0.00 94 1012.7
20260510031006 61 263 0.0 0.0 0.00 0.00 0.00 94 1012.7
20260510030505 62 263 0.0 0.0 0.00 0.00 0.00 93 1012.7
20260510030027 62 263 0.0 0.0 0.00 0.00 0.00 93 1012.6
20260510025511 62 263 0.0 0.0 0.00 0.00 0.00 93 1012.6
20260510025008 62 263 0.0 0.0 0.00 0.00 0.00 93 1012.7
20260510024523 62 263 0.0 0.0 0.00 0.00 0.00 93 1012.7
20260510024005 62 263 0.0 0.0 0.00 0.00 0.00 93 1012.6
20260510023508 62 263 0.0 0.0 0.00 0.00 0.00 92 1012.5
20260510023026 62 263 0.0 0.0 0.00 0.00 0.00 92 1012.6
20260510022513 62 263 0.0 0.0 0.00 0.00 0.00 92 1012.5
20260510022008 63 263 0.0 0.0 0.00 0.00 0.00 92 1012.5
20260510021535 63 263 0.0 0.0 0.00 0.00 0.00 92 1012.5
20260510021008 63 263 0.0 0.0 0.00 0.00 0.00 92 1012.4
20260510020503 63 263 0.0 0.0 0.00 0.00 0.00 92 1012.2
20260510020030 63 263 0.0 0.0 0.00 0.00 0.00 92 1012.2
20260510015510 63 263 0.0 0.0 0.00 0.00 0.00 92 1012.4
20260510015008 63 263 0.0 0.0 0.00 0.00 0.00 92 1012.4
20260510014523 63 263 0.0 0.0 0.00 0.00 0.00 92 1012.3
20260510014008 63 263 0.0 0.0 0.00 0.00 0.00 91 1012.2
20260510013514 63 263 0.0 0.0 0.00 0.00 0.00 91 1012.1
20260510013029 64 263 0.0 0.0 0.00 0.00 0.00 91 1012.0
20260510012510 64 263 0.0 0.0 0.00 0.00 0.00 90 1011.9
20260510012011 64 263 0.0 0.0 0.00 0.00 0.00 90 1011.8
20260510011525 64 263 0.0 0.0 0.00 0.00 0.00 90 1011.7
20260510011011 64 263 0.0 0.0 0.00 0.00 0.00 89 1011.7
20260510010509 64 263 0.0 0.0 0.00 0.00 0.00 89 1011.7
20260510010025 65 263 0.0 0.0 0.00 0.00 0.00 89 1011.6
20260510005505 65 263 0.0 0.0 0.00 0.00 0.00 88 1011.6
20260510005005 65 263 0.0 0.0 0.00 0.00 0.00 88 1011.5
20260510004011 66 263 0.0 0.0 0.00 0.00 0.00 87 1011.4
20260510003507 66 263 0.0 0.0 0.00 0.00 0.00 87 1011.4
20260510003023 66 263 0.0 0.0 0.00 0.00 0.00 86 1011.4
20260510002508 67 263 0.0 0.0 0.00 0.00 0.00 85 1011.4
20260510002011 67 263 0.0 0.0 0.00 0.00 0.00 84 1011.5
20260510001536 67 263 0.0 0.0 0.00 0.00 0.00 84 1011.4
20260510001010 68 263 0.0 0.0 0.00 0.00 0.00 83 1011.5
20260510000512 68 263 0.0 0.0 0.00 0.00 0.00 83 1011.4
20260510000027 68 263 0.0 0.0 0.00 0.00 0.00 82 1011.4
20260509235507 68 263 0.0 0.0 0.00 0.00 0.00 82 1011.3
20260509235013 69 263 0.0 0.0 0.00 0.00 0.00 82 1011.3
20260509234525 69 263 0.0 0.0 0.00 0.00 0.00 82 1011.3
20260509234008 69 263 0.0 0.0 0.00 0.00 0.00 81 1011.2
20260509233509 69 263 0.0 0.0 0.00 0.00 0.00 80 1011.1
20260509233023 70 263 0.0 0.0 0.00 0.00 0.00 80 1011.0
20260509232509 70 263 0.0 0.0 0.00 0.00 0.00 78 1010.7
20260509232010 70 263 0.0 0.0 0.00 0.00 0.00 79 1010.8
20260509231006 71 263 0.0 0.0 0.00 0.00 0.00 77 1010.8
20260509230510 71 263 0.0 0.0 0.00 0.00 0.00 77 1010.7
20260509230027 71 263 0.0 0.0 0.00 0.00 0.00 76 1010.7
20260509225508 71 263 0.0 0.0 0.00 0.00 0.00 76 1010.7
20260509225012 71 263 0.0 0.0 0.00 0.00 0.00 75 1010.7
20260509224526 71 263 0.0 0.0 0.00 0.00 0.00 75 1010.6
20260509224012 71 263 0.0 0.0 0.00 0.00 0.00 76 1010.6
20260509223506 71 263 0.0 0.0 0.00 0.00 0.00 74 1010.8
20260509222507 71 263 0.0 0.0 0.00 0.00 0.00 75 1010.7
20260509222013 71 263 0.0 0.0 0.00 0.00 0.00 75 1010.7
20260509221009 71 263 0.0 1.0 0.00 0.00 0.00 75 1010.8
20260509220502 71 215 0.0 0.0 0.00 0.00 0.00 75 1010.8
20260509215503 71 215 0.0 2.0 0.00 0.00 0.00 74 1010.7
20260509215003 72 215 0.0 2.0 0.00 0.00 0.00 74 1010.7
20260509214520 72 214 0.0 2.0 0.00 0.00 0.00 75 1010.8
20260509214005 72 214 0.0 2.0 0.00 0.00 0.00 74 1010.7
20260509213503 72 214 0.0 2.0 0.00 0.00 0.00 74 1010.6
20260509213017 72 261 0.0 1.0 0.00 0.00 0.00 74 1010.6
20260509212509 71 207 0.0 1.0 0.00 0.00 0.00 74 1010.7
20260509212006 71 207 0.0 2.0 0.00 0.00 0.00 73 1010.6
20260509211522 71 207 0.0 2.0 0.00 0.00 0.00 75 1010.5
20260509211008 71 207 0.0 2.0 0.00 0.00 0.00 75 1010.6
20260509210508 71 211 0.0 1.0 0.00 0.00 0.00 73 1010.5
20260509205504 72 196 0.0 2.0 0.00 0.00 0.00 72 1010.4
20260509204523 72 253 0.0 2.0 0.00 0.00 0.00 72 1010.3
20260509204003 71 198 0.0 2.0 0.00 0.00 0.00 73 1010.4
20260509203506 71 212 0.0 2.0 0.00 0.00 0.00 72 1010.6
20260509202506 72 202 0.0 2.0 0.00 0.00 0.00 73 1010.3
20260509201521 71 200 1.0 2.0 0.00 0.00 0.00 73 1010.8
20260509200508 71 205 1.0 5.0 0.00 0.00 0.00 72 1010.7
20260509200022 70 203 0.0 2.0 0.00 0.00 0.00 73 1010.9
20260509195509 70 184 0.0 2.0 0.00 0.00 0.00 73 1011.0
20260509195006 70 189 0.0 3.0 0.00 0.00 0.00 74 1011.0
20260509194510 70 232 0.0 3.0 0.00 0.00 0.00 73 1011.0
20260509193504 70 188 0.0 2.0 0.00 0.00 0.00 72 1011.1
20260509193013 70 188 0.0 2.0 0.00 0.00 0.00 71 1011.1
20260509192505 70 209 0.0 2.0 0.00 0.00 0.00 71 1011.1
20260509192005 71 209 0.0 5.0 0.00 0.00 0.00 69 1011.2
20260509191516 72 240 0.0 5.0 0.00 0.00 0.00 68 1011.3
20260509191010 72 208 1.0 3.0 0.00 0.00 0.00 65 1011.3
20260509190507 73 200 1.0 2.0 0.00 0.00 0.00 67 1011.2
20260509190027 73 214 0.0 2.0 0.00 0.00 0.00 69 1011.1
20260509185506 72 190 0.0 2.0 0.00 0.00 0.00 69 1011.3